WIF9AK ENTC-ENHV

Flight info

Callsign WIF9AK
Flight time 0h 38m
Altitude 19000
Route LITPI DCT HLN
Aircraft DH8B/M-SDFGR/S

Departure

Time 2026-04-14 10:39
Airport Tromsø Airport (ENTC)

Arrival

Time 2026-04-14 11:17
Airport Honningsvåg Airport, Valan (ENHV)
Time Latitude Longitude Altitude Speed Heading
2026-04-14 10:31 69.68088 18.90986 32 ft 0 kts 283°
2026-04-14 10:35 69.68087 18.90987 32 ft 2 kts 283°
2026-04-14 10:35 69.68084 18.91033 32 ft 2 kts 283°
2026-04-14 10:35 69.68080 18.91079 31 ft 2 kts 283°
2026-04-14 10:36 69.68076 18.91125 30 ft 2 kts 283°
2026-04-14 10:36 69.68072 18.91172 29 ft 2 kts 283°
2026-04-14 10:36 69.68069 18.91218 29 ft 2 kts 283°
2026-04-14 10:36 69.68065 18.91264 29 ft 2 kts 282°
2026-04-14 10:37 69.68063 18.91289 29 ft 0 kts 283°
2026-04-14 10:37 69.68083 18.91279 28 ft 10 kts 26°
2026-04-14 10:38 69.68165 18.91392 26 ft 16 kts 14°
2026-04-14 10:38 69.68295 18.91477 23 ft 17 kts 14°
2026-04-14 10:38 69.68329 18.91615 26 ft 12 kts 105°
2026-04-14 10:38 69.68309 18.91839 23 ft 6 kts 117°
2026-04-14 10:39 69.68286 18.91855 23 ft 2 kts 193°
2026-04-14 10:39 69.67831 18.91551 36 ft 116 kts 192°
2026-04-14 10:39 69.66926 18.90982 488 ft 141 kts 194°
2026-04-14 10:39 69.65895 18.90262 975 ft 170 kts 195°
2026-04-14 10:40 69.64711 18.89431 1727 ft 178 kts 193°
2026-04-14 10:40 69.63512 18.88512 2468 ft 180 kts 205°
2026-04-14 10:40 69.62656 18.85955 3196 ft 184 kts 249°
2026-04-14 10:40 69.62659 18.82303 3948 ft 189 kts 286°
2026-04-14 10:41 69.63405 18.79204 4690 ft 197 kts 324°
2026-04-14 10:41 69.64714 18.78079 5443 ft 201 kts
2026-04-14 10:41 69.65985 18.79603 6200 ft 203 kts 45°
2026-04-14 10:41 69.66689 18.83036 6977 ft 200 kts 70°
2026-04-14 10:42 69.67405 18.86505 7677 ft 204 kts 54°
2026-04-14 10:42 69.68217 18.89846 8422 ft 203 kts 63°
2026-04-14 10:42 69.68949 18.93366 9179 ft 207 kts 61°
2026-04-14 10:42 69.69783 18.96876 9760 ft 218 kts 58°
2026-04-14 10:43 69.70669 19.00549 10330 ft 228 kts 60°
2026-04-14 10:43 69.71545 19.04390 10869 ft 234 kts 60°
2026-04-14 10:43 69.72442 19.08223 11400 ft 239 kts 59°
2026-04-14 10:43 69.73372 19.12191 11950 ft 242 kts 61°
2026-04-14 10:44 69.74310 19.16288 12530 ft 247 kts 60°
2026-04-14 10:44 69.75286 19.20436 13109 ft 251 kts 60°
2026-04-14 10:44 69.76266 19.24682 13704 ft 256 kts 61°
2026-04-14 10:44 69.77249 19.28987 14290 ft 257 kts 60°
2026-04-14 10:45 69.78252 19.33302 14820 ft 260 kts 60°
2026-04-14 10:45 69.79259 19.37661 15346 ft 262 kts 61°
2026-04-14 10:45 69.80264 19.42072 15870 ft 264 kts 61°
2026-04-14 10:45 69.81293 19.46525 16402 ft 267 kts 61°
2026-04-14 10:46 69.82323 19.51035 16939 ft 270 kts 62°
2026-04-14 10:46 69.83359 19.55599 17480 ft 273 kts 61°
2026-04-14 10:46 69.84422 19.60221 18034 ft 276 kts 62°
2026-04-14 10:46 69.85474 19.64889 18593 ft 279 kts 62°
2026-04-14 10:47 69.86546 19.69614 19097 ft 282 kts 62°
2026-04-14 10:47 69.87640 19.74427 19445 ft 292 kts 62°
2026-04-14 10:47 69.88769 19.79517 19502 ft 308 kts 62°
2026-04-14 10:47 69.89954 19.84862 19511 ft 320 kts 62°
2026-04-14 10:48 69.91168 19.90395 19514 ft 328 kts 62°
2026-04-14 10:48 69.92395 19.95954 19515 ft 334 kts 62°
2026-04-14 10:48 69.93679 20.01662 19515 ft 338 kts 61°
2026-04-14 10:48 69.94967 20.07407 19513 ft 340 kts 62°
2026-04-14 10:49 69.95402 20.09369 19513 ft 341 kts 62°
2026-04-14 10:49 69.95708 20.10754 19511 ft 341 kts 62°
2026-04-14 10:49 69.96995 20.16583 19507 ft 342 kts 62°
2026-04-14 10:49 69.98286 20.22407 19502 ft 342 kts 62°
2026-04-14 10:50 69.99577 20.28236 19505 ft 342 kts 62°
2026-04-14 10:50 70.00862 20.34078 19498 ft 341 kts 62°
2026-04-14 10:50 70.02144 20.39923 19497 ft 341 kts 62°
2026-04-14 10:50 70.03427 20.45777 19491 ft 341 kts 62°
2026-04-14 10:51 70.04707 20.51634 19490 ft 341 kts 62°
2026-04-14 10:51 70.05982 20.57491 19492 ft 341 kts 62°
2026-04-14 10:51 70.07251 20.63333 19491 ft 340 kts 62°
2026-04-14 10:51 70.08506 20.69122 19492 ft 341 kts 62°
2026-04-14 10:52 70.09775 20.75002 19489 ft 340 kts 62°
2026-04-14 10:52 70.11039 20.80872 19487 ft 341 kts 62°
2026-04-14 10:52 70.12308 20.86766 19485 ft 340 kts 62°
2026-04-14 10:52 70.13567 20.92624 19490 ft 340 kts 62°
2026-04-14 10:53 70.14829 20.98547 19489 ft 340 kts 63°
2026-04-14 10:53 70.16080 21.04432 19488 ft 339 kts 62°
2026-04-14 10:53 70.17335 21.10330 19492 ft 339 kts 63°
2026-04-14 10:53 70.18518 21.16329 19493 ft 338 kts 65°
2026-04-14 10:54 70.19664 21.22394 19490 ft 338 kts 66°
2026-04-14 10:54 70.20796 21.28473 19485 ft 338 kts 66°
2026-04-14 10:54 70.21932 21.34554 19481 ft 338 kts 65°
2026-04-14 10:54 70.23075 21.40541 19473 ft 338 kts 65°
2026-04-14 10:55 70.24229 21.46570 19475 ft 337 kts 65°
2026-04-14 10:55 70.25373 21.52631 19474 ft 337 kts 65°
2026-04-14 10:55 70.26510 21.58699 19481 ft 337 kts 65°
2026-04-14 10:55 70.27645 21.64752 19486 ft 337 kts 65°
2026-04-14 10:56 70.28786 21.70835 19488 ft 338 kts 65°
2026-04-14 10:56 70.29919 21.76909 19489 ft 337 kts 66°
2026-04-14 10:56 70.31052 21.82991 19482 ft 337 kts 66°
2026-04-14 10:56 70.32180 21.89075 19484 ft 337 kts 66°
2026-04-14 10:57 70.33306 21.95165 19487 ft 337 kts 66°
2026-04-14 10:57 70.34434 22.01277 19490 ft 336 kts 66°
2026-04-14 10:57 70.35555 22.07374 19491 ft 336 kts 66°
2026-04-14 10:57 70.36673 22.13473 19495 ft 336 kts 66°
2026-04-14 10:58 70.37790 22.19585 19492 ft 336 kts 66°
2026-04-14 10:58 70.38903 22.25686 19492 ft 335 kts 66°
2026-04-14 10:58 70.40012 22.31792 19490 ft 335 kts 66°
2026-04-14 10:58 70.41119 22.37898 19491 ft 335 kts 66°
2026-04-14 10:59 70.42224 22.44016 19490 ft 335 kts 66°
2026-04-14 10:59 70.43329 22.50148 19488 ft 335 kts 66°
2026-04-14 10:59 70.44426 22.56255 19489 ft 334 kts 66°
2026-04-14 10:59 70.45508 22.62302 19489 ft 335 kts 66°
2026-04-14 11:00 70.46617 22.68510 19485 ft 334 kts 67°
2026-04-14 11:00 70.47697 22.74575 19485 ft 334 kts 67°
2026-04-14 11:00 70.48787 22.80723 19488 ft 334 kts 67°
2026-04-14 11:00 70.49875 22.86868 19488 ft 334 kts 67°
2026-04-14 11:01 70.50966 22.93047 19500 ft 334 kts 67°
2026-04-14 11:01 70.52050 22.99214 19478 ft 335 kts 67°
2026-04-14 11:01 70.53132 23.05382 19479 ft 334 kts 67°
2026-04-14 11:01 70.54213 23.11559 19479 ft 334 kts 67°
2026-04-14 11:02 70.55294 23.17738 19472 ft 335 kts 67°
2026-04-14 11:02 70.56371 23.23945 19471 ft 335 kts 67°
2026-04-14 11:02 70.57445 23.30171 19467 ft 335 kts 67°
2026-04-14 11:02 70.58518 23.36379 19476 ft 335 kts 67°
2026-04-14 11:03 70.59579 23.42525 19470 ft 335 kts 67°
2026-04-14 11:03 70.60650 23.48774 19477 ft 336 kts 67°
2026-04-14 11:03 70.61718 23.55006 19474 ft 335 kts 67°
2026-04-14 11:03 70.62788 23.61263 19467 ft 336 kts 67°
2026-04-14 11:04 70.63852 23.67525 19464 ft 336 kts 67°
2026-04-14 11:04 70.64916 23.73807 19472 ft 336 kts 67°
2026-04-14 11:04 70.65979 23.80086 19460 ft 336 kts 67°
2026-04-14 11:04 70.67038 23.86372 19472 ft 336 kts 67°
2026-04-14 11:05 70.68090 23.92654 19461 ft 335 kts 68°
2026-04-14 11:05 70.69083 23.98594 19186 ft 308 kts 68°
2026-04-14 11:05 70.70053 24.04350 18664 ft 306 kts 67°
2026-04-14 11:05 70.71005 24.10011 18345 ft 298 kts 67°
2026-04-14 11:06 70.71934 24.15542 18033 ft 299 kts 67°
2026-04-14 11:06 70.72872 24.21151 17714 ft 298 kts 67°
2026-04-14 11:06 70.73806 24.26753 17417 ft 298 kts 67°
2026-04-14 11:06 70.74735 24.32342 17123 ft 296 kts 67°
2026-04-14 11:07 70.75652 24.37933 16777 ft 298 kts 68°
2026-04-14 11:07 70.76571 24.43583 16391 ft 299 kts 67°
2026-04-14 11:07 70.77494 24.49254 16011 ft 299 kts 67°
2026-04-14 11:07 70.78416 24.54916 15640 ft 299 kts 67°
2026-04-14 11:08 70.79333 24.60566 15270 ft 297 kts 67°
2026-04-14 11:08 70.80244 24.66217 14915 ft 296 kts 67°
2026-04-14 11:08 70.81145 24.71822 14560 ft 295 kts 67°
2026-04-14 11:08 70.82041 24.77411 14183 ft 293 kts 67°
2026-04-14 11:09 70.82929 24.82964 13785 ft 291 kts 67°
2026-04-14 11:09 70.83813 24.88491 13392 ft 290 kts 67°
2026-04-14 11:09 70.84688 24.94012 12993 ft 288 kts 67°
2026-04-14 11:10 70.86424 25.04970 12222 ft 286 kts 66°
2026-04-14 11:10 70.87276 25.10338 11847 ft 284 kts 66°
2026-04-14 11:10 70.88132 25.15749 11472 ft 283 kts 66°
2026-04-14 11:10 70.88984 25.21145 11097 ft 281 kts 66°
2026-04-14 11:11 70.89555 25.24776 10849 ft 280 kts 66°
2026-04-14 11:11 70.90661 25.31794 10551 ft 272 kts 66°
2026-04-14 11:11 70.91479 25.36954 10294 ft 269 kts 66°
2026-04-14 11:11 70.92294 25.42121 9837 ft 269 kts 66°
2026-04-14 11:12 70.93090 25.47227 9295 ft 263 kts 66°
2026-04-14 11:12 70.93622 25.50543 8934 ft 261 kts 62°
2026-04-14 11:12 70.94675 25.54844 8402 ft 259 kts 49°
2026-04-14 11:12 70.95895 25.58865 7867 ft 256 kts 47°
2026-04-14 11:13 70.97100 25.62737 7369 ft 238 kts 47°
2026-04-14 11:13 70.98182 25.66215 6840 ft 216 kts 47°
2026-04-14 11:13 70.99193 25.69431 6243 ft 205 kts 47°
2026-04-14 11:13 71.00173 25.72522 5642 ft 198 kts 47°
2026-04-14 11:14 71.01131 25.75512 5041 ft 195 kts 47°
2026-04-14 11:14 71.02074 25.78418 4443 ft 189 kts 47°
2026-04-14 11:14 71.02956 25.81361 3853 ft 186 kts 61°
2026-04-14 11:14 71.03422 25.84977 3293 ft 181 kts 77°
2026-04-14 11:15 71.03774 25.88658 2713 ft 178 kts 76°
2026-04-14 11:15 71.04134 25.92306 2139 ft 178 kts 76°
2026-04-14 11:15 71.04476 25.95844 1803 ft 165 kts 77°
2026-04-14 11:15 71.04642 25.99156 1436 ft 151 kts 104°
2026-04-14 11:16 71.04185 26.01841 1125 ft 138 kts 136°
2026-04-14 11:16 71.03542 26.03928 861 ft 139 kts 139°
2026-04-14 11:16 71.02756 26.05519 790 ft 133 kts 168°
2026-04-14 11:16 71.01888 26.05279 762 ft 125 kts 210°
2026-04-14 11:17 71.01267 26.03577 602 ft 117 kts 240°
2026-04-14 11:17 71.00987 26.01213 293 ft 121 kts 258°
2026-04-14 11:17 71.00975 25.98604 38 ft 115 kts 269°
2026-04-14 11:17 71.00968 25.97836 30 ft 4 kts 243°
2026-04-14 11:18 71.00930 25.97818 31 ft 6 kts 179°
2026-04-14 11:18 71.00908 25.97826 33 ft 2 kts 152°
2026-04-14 11:18 71.00902 25.97924 33 ft 0 kts 89°